TimeCDT,TemperatureF,Dew PointF,Humidity,Sea Level PressureIn,VisibilityMPH,Wind Direction,Wind SpeedMPH,Gust SpeedMPH,PrecipitationIn,Events,Conditions,WindDirDegrees,DateUTC
12:56 AM,57.0,55.0,93,30.10,-9999.0,NE,3.5,-,N/A,,Unknown,50,2013-07-14 05:56:00
1:56 AM,54.0,53.1,97,30.12,-9999.0,Calm,Calm,-,N/A,,Unknown,0,2013-07-14 06:56:00
2:56 AM,54.0,52.0,93,30.10,-9999.0,Calm,Calm,-,N/A,,Unknown,0,2013-07-14 07:56:00
3:56 AM,54.0,52.0,93,30.12,-9999.0,Calm,Calm,-,N/A,,Unknown,0,2013-07-14 08:56:00
4:56 AM,53.1,52.0,96,30.13,-9999.0,Calm,Calm,-,N/A,,Unknown,0,2013-07-14 09:56:00
5:56 AM,55.9,55.0,97,30.12,-9999.0,Calm,Calm,-,N/A,,Unknown,0,2013-07-14 10:56:00
6:56 AM,55.9,53.1,90,30.12,-9999.0,Calm,Calm,-,N/A,,Unknown,0,2013-07-14 11:56:00
7:56 AM,62.1,57.9,86,30.11,-9999.0,Calm,Calm,-,N/A,,Unknown,0,2013-07-14 12:56:00
8:56 AM,61.0,57.0,87,30.12,-9999.0,Calm,Calm,-,N/A,,Unknown,0,2013-07-14 13:56:00
9:56 AM,61.0,57.9,90,30.12,-9999.0,Calm,Calm,-,N/A,,Unknown,0,2013-07-14 14:56:00
10:56 AM,60.1,55.9,86,30.14,-9999.0,Calm,Calm,-,N/A,,Unknown,0,2013-07-14 15:56:00
11:56 AM,61.0,57.0,87,30.14,-9999.0,Calm,Calm,-,N/A,,Unknown,0,2013-07-14 16:56:00
12:56 PM,57.9,55.0,90,30.15,-9999.0,Calm,Calm,-,N/A,,Unknown,0,2013-07-14 17:56:00
1:56 PM,61.0,57.0,87,30.16,-9999.0,Calm,Calm,-,N/A,,Unknown,0,2013-07-14 18:56:00
2:56 PM,64.0,60.1,87,30.16,-9999.0,Calm,Calm,-,N/A,,Unknown,0,2013-07-14 19:56:00
3:56 PM,59.0,55.9,90,30.16,-9999.0,Calm,Calm,-,N/A,,Unknown,0,2013-07-14 20:56:00
4:56 PM,57.9,54.0,87,30.16,-9999.0,Calm,Calm,-,N/A,,Unknown,0,2013-07-14 21:56:00
5:56 PM,55.0,54.0,96,30.16,-9999.0,Calm,Calm,-,0.03,,Unknown,0,2013-07-14 22:56:00
6:56 PM,57.9,55.9,93,30.17,-9999.0,Calm,Calm,-,0.09,,Unknown,0,2013-07-14 23:56:00
7:56 PM,55.0,54.0,96,30.17,-9999.0,Calm,Calm,-,0.01,,Unknown,0,2013-07-15 00:56:00
8:56 PM,57.9,57.0,97,30.17,-9999.0,Calm,Calm,-,N/A,,Unknown,0,2013-07-15 01:56:00
9:56 PM,59.0,57.9,96,30.17,-9999.0,Calm,Calm,-,N/A,,Unknown,0,2013-07-15 02:56:00
10:56 PM,61.0,59.0,93,30.17,-9999.0,Calm,Calm,-,N/A,,Unknown,0,2013-07-15 03:56:00
11:56 PM,54.0,53.1,97,30.21,-9999.0,East,5.8,-,N/A,,Unknown,80,2013-07-15 04:56:00